DateTimeUTC,F1_A11,F1_S11,BsB_S11,BsG_S11,BsR_S11,BbsB_S11,BbsG_S11,BbsR_S11,BaB_A11,BaG_A11,BaR_A11,Tu_S11,T_S11,Uu_S11,U_S11,P_S11,T1_A11
2021-09-06T05:00:00Z,00000200,21000000,,,,,,,-000.06,0000.00,-000.30,18.1,25.1,,00.0,0660.0,31.0
2021-09-06T05:01:00Z,00000200,21000000,,,,,,,0000.25,0000.00,0000.17,18.2,25.1,,00.0,0660.0,31.0
2021-09-06T05:02:00Z,00000200,21000000,,,,,,,-000.40,0000.03,-000.04,18.2,25.1,,00.0,0660.0,31.0
2021-09-06T05:03:00Z,00000200,61000000,,,,,,,0000.01,-000.24,-000.03,18.2,25.2,,00.0,0660.0,31.0
2021-09-06T05:04:00Z,00000200,41000000,0000.36,0000.21,-000.32,-000.26,0000.19,-000.26,0000.73,0000.59,0000.30,18.4,25.0,,00.0,0660.9,31.0
2021-09-06T05:05:00Z,00000200,01000000,-000.39,0000.10,-000.24,0000.42,0000.07,-000.26,-000.11,-000.19,-000.17,18.4,24.9,,00.0,0660.9,31.0
2021-09-06T05:06:00Z,00000200,01000000,-000.08,0000.06,-000.14,-000.14,-000.16,-000.25,-000.20,-000.52,-000.03,18.4,24.9,,00.0,0660.9,31.0
2021-09-06T05:07:00Z,00000200,01000000,-000.36,-000.41,-000.23,0000.10,0000.05,-000.25,-000.01,0000.34,0000.02,18.3,24.8,00.0,00.0,0660.9,31.0
2021-09-06T05:08:00Z,00000200,01000000,0000.08,-000.18,-000.16,-000.29,-000.13,-000.15,-000.30,-000.17,-000.21,18.2,24.8,,00.0,0660.9,31.0
2021-09-06T05:09:00Z,00000200,01000000,0000.42,-000.07,0000.02,0000.08,0000.17,0000.06,-000.09,-000.09,0000.06,18.2,24.8,00.0,00.0,0660.9,31.0
2021-09-06T05:10:00Z,00000200,01000000,0000.39,0000.04,-000.45,0000.40,-000.05,-000.21,-000.14,0000.09,-000.34,18.2,24.7,,00.0,0660.9,31.0
2021-09-06T05:11:00Z,00000200,01000000,0000.50,-000.23,-000.07,0000.43,0000.20,0000.24,0000.49,-000.07,0000.38,18.1,24.7,,00.0,0660.9,31.0
2021-09-06T05:12:00Z,00000200,01000000,-000.28,-000.22,-000.24,0000.63,0000.01,0000.08,-000.14,-000.10,0000.13,18.1,24.7,,00.0,0660.9,31.0
2021-09-06T05:13:00Z,00000200,01000000,0000.22,-000.07,-000.15,-000.21,-000.11,-000.15,0000.19,0000.38,-000.15,18.2,24.7,,00.0,0660.9,31.0
2021-09-06T05:14:00Z,00000200,01000000,0000.56,-000.15,0000.19,-000.05,0000.04,-000.26,-000.13,-000.21,0000.24,18.3,24.7,,00.0,0660.9,31.0
2021-09-06T05:15:00Z,00000200,01000000,-000.39,0000.11,-000.22,0000.03,0000.21,0000.17,-000.09,0000.39,-000.06,18.4,24.8,,00.0,0660.9,31.0
2021-09-06T05:16:00Z,00000200,01000000,0000.02,-000.02,0000.04,-000.01,0000.20,0000.01,0000.10,-000.28,0000.12,18.5,24.8,,00.0,0660.9,31.0
2021-09-06T05:17:00Z,00000200,01000000,0000.78,-000.08,-000.37,-000.11,0000.20,-000.04,-000.20,0000.13,-000.33,18.5,24.9,,00.0,0660.8,31.0
2021-09-06T05:18:00Z,00000200,01000000,0000.67,-000.17,-000.08,-000.14,-000.08,0000.29,0000.12,-000.20,0000.09,18.6,24.9,,00.0,0660.8,31.0
2021-09-06T05:19:00Z,00000200,01000000,0000.37,-000.12,0000.10,0000.34,0000.16,-000.13,0000.07,-000.14,0000.01,18.5,24.8,,00.0,0660.9,31.0
2021-09-06T05:20:00Z,00000200,01000000,0000.55,-000.18,-000.37,0000.42,-000.18,-000.19,-000.08,0000.05,-000.20,18.4,24.8,,00.0,0660.8,31.0
2021-09-06T05:21:00Z,00000200,01000000,0000.58,0000.21,0000.04,0000.44,-000.09,0000.44,-000.29,-000.26,0000.12,18.4,24.8,,00.0,0660.9,31.0
2021-09-06T05:22:00Z,00000200,01000000,-000.08,-000.05,0000.08,-000.16,0000.20,-000.05,0000.02,-000.12,-000.29,18.3,24.8,,00.0,0660.8,31.0
2021-09-06T05:23:00Z,00000200,01000000,0001.05,0000.16,-000.08,0000.63,0000.14,-000.08,-000.06,0000.07,-000.26,18.3,24.7,,00.0,0660.8,31.0
2021-09-06T05:24:00Z,00000200,01000000,-000.69,0000.08,-000.08,0000.13,0000.08,0000.13,-000.42,-000.32,0000.21,18.2,24.7,,00.0,0660.8,31.0
2021-09-06T05:25:00Z,00000200,01000000,-000.28,0000.04,-000.09,-000.43,0000.11,-000.12,0000.15,-000.07,-000.15,18.1,24.7,,00.0,0660.8,31.0
2021-09-06T05:26:00Z,00000200,01000000,0000.29,-000.11,-000.07,0000.35,0000.17,0000.00,0000.35,-000.01,0000.40,18.1,24.6,,00.0,0660.7,31.0
2021-09-06T05:27:00Z,00000200,01000000,-000.21,-000.13,-000.18,0000.37,0000.02,0000.22,0000.01,0000.20,0000.02,18.1,24.6,,00.0,0660.7,30.9
2021-09-06T05:28:00Z,00000200,01000000,-000.11,0000.11,-000.09,-000.20,0000.11,-000.21,-000.32,0000.47,-000.00,18.2,24.6,,00.0,0660.8,31.0
2021-09-06T05:29:00Z,00000200,01000000,0000.40,-000.29,0000.19,0000.23,-000.04,0000.12,0000.44,-000.17,-000.16,18.3,24.7,,00.0,0660.8,31.0
2021-09-06T05:30:00Z,00000200,01000000,0000.75,-000.02,0000.01,0000.78,0000.03,0000.06,0000.04,-000.08,0000.47,18.4,24.7,,00.0,0660.8,31.0
2021-09-06T05:31:00Z,00000200,01000000,0000.03,0000.09,-000.21,0000.10,-000.15,-000.18,0000.13,0000.30,0000.05,18.5,24.8,,00.0,0660.8,31.0
2021-09-06T05:32:00Z,00000200,01000000,0000.07,-000.01,-000.32,0000.10,0000.22,-000.02,-000.07,-000.01,-000.07,18.6,24.8,,00.0,0660.8,31.0
2021-09-06T05:33:00Z,00000200,01000000,-000.16,0000.00,0000.11,-000.08,0000.06,0000.03,0000.05,0000.14,-000.11,18.6,24.9,,00.0,0660.7,31.0
2021-09-06T05:34:00Z,00000200,01000000,0000.31,-000.16,-000.32,-000.26,-000.06,-000.03,-000.22,-000.15,-000.45,18.6,24.9,,00.0,0660.7,31.0
2021-09-06T05:35:00Z,00000200,01000000,0000.17,-000.15,0000.10,-000.06,-000.02,-000.11,0000.09,-000.06,0000.16,18.6,24.9,,00.0,0660.7,31.0
2021-09-06T05:36:00Z,00000200,01000000,0000.62,0000.18,-000.06,-000.31,-000.11,-000.03,-000.06,0000.14,0000.29,18.5,24.8,,00.0,0660.7,31.0
2021-09-06T05:37:00Z,00000200,01000000,0000.24,-000.02,0000.03,-000.06,-000.33,0000.20,0000.16,-000.10,-000.36,18.5,24.8,,00.0,0660.7,31.0
2021-09-06T05:38:00Z,00000200,01000000,0000.49,0000.30,0000.24,-000.16,-000.06,0000.11,0000.02,-000.22,0000.19,18.4,24.8,,00.0,0660.6,31.0
2021-09-06T05:39:00Z,00000200,01000000,-000.21,0000.06,-000.26,0000.69,-000.07,-000.62,-000.22,0000.16,0000.07,18.3,24.7,,00.0,0660.6,31.0
2021-09-06T05:40:00Z,00000200,01000000,0000.05,-000.30,-000.08,-000.05,0000.22,0000.08,-000.27,-000.06,-000.02,18.3,24.7,,00.0,0660.6,31.0
2021-09-06T05:41:00Z,00000200,01000000,0000.03,0000.10,-000.15,-000.02,0000.05,0000.23,0000.64,0000.13,0000.07,18.2,24.7,,00.0,0660.6,31.0
2021-09-06T05:42:00Z,00000200,01000000,-000.41,-000.04,-000.15,0000.14,-000.04,0000.09,-000.10,0000.05,0000.13,18.2,24.7,,00.0,0660.6,31.0
2021-09-06T05:43:00Z,00000200,01000000,-000.37,0000.33,-000.29,0000.57,0000.12,-000.04,-000.08,0000.03,-000.04,18.3,24.7,,00.0,0660.6,31.0
2021-09-06T05:44:00Z,00000200,01000000,0000.33,-000.04,0000.05,0000.14,-000.03,0000.09,0000.22,0000.08,-000.04,18.4,24.7,,00.0,0660.6,31.0
2021-09-06T05:45:00Z,00000200,01000000,0000.26,-000.03,-000.63,-000.30,-000.00,-000.24,0000.12,0000.55,0000.41,18.5,24.7,,00.0,0660.6,31.0
2021-09-06T05:46:00Z,00000200,01000000,0000.46,-000.07,0000.10,-000.41,-000.33,0000.01,-000.12,0000.06,-000.24,18.6,24.8,,00.0,0660.6,31.0
2021-09-06T05:47:00Z,00000200,01000000,0000.14,0000.04,-000.17,0000.45,-000.09,0000.06,0000.36,-000.21,0000.41,18.7,24.9,,00.0,0660.6,31.0
2021-09-06T05:48:00Z,00000200,01000000,0000.24,0000.07,-000.23,-000.37,-000.00,-000.08,-000.14,0000.09,-000.39,18.8,24.9,,00.0,0660.6,31.0
2021-09-06T05:49:00Z,00000200,01000000,-000.06,0000.21,-000.14,0000.30,0000.21,0000.03,0000.19,0000.01,0000.18,18.8,25.0,,00.0,0660.6,31.0
2021-09-06T05:50:00Z,00000200,01000000,0000.57,-000.00,-000.25,0000.46,-000.29,-000.06,-000.20,-000.37,-000.25,18.8,25.0,,00.0,0660.6,31.0
2021-09-06T05:51:00Z,00000200,01000000,0000.06,-000.08,-000.41,-000.36,0000.15,-000.01,-000.01,0000.28,0000.25,18.8,24.9,,00.0,0660.6,31.0
2021-09-06T05:52:00Z,00000200,01000000,-000.15,-000.03,-000.37,-000.01,-000.05,-000.08,-000.09,-000.14,-000.09,18.7,24.9,,00.0,0660.6,31.0
2021-09-06T05:53:00Z,00000200,01000000,0000.50,-000.16,-000.34,0000.13,0000.14,0000.23,0000.17,-000.09,0000.08,18.6,24.9,,00.0,0660.5,31.0
2021-09-06T05:54:00Z,00000200,01000000,-000.31,-000.09,0000.09,0000.68,-000.10,-000.10,0000.36,0000.02,-000.27,18.6,24.9,,00.0,0660.5,31.0
2021-09-06T05:55:00Z,00000200,01000000,0000.36,-000.11,0000.04,0000.51,0000.21,0000.08,-000.30,-000.02,-000.01,18.5,24.8,,00.0,0660.5,31.0
2021-09-06T05:56:00Z,00000200,01000000,0000.85,0000.34,-000.10,0000.68,-000.11,0000.18,0000.28,-000.05,0000.32,18.4,24.8,,00.0,0660.5,31.0
2021-09-06T05:57:00Z,00000200,41000000,,,,,,,0000.07,0000.58,-000.03,18.5,24.8,,00.0,0660.6,31.0
2021-09-06T05:58:00Z,00000200,61000000,,,,,,,0000.03,0000.21,-000.15,18.2,24.9,,00.0,0659.5,31.0
2021-09-06T05:59:00Z,00000200,21000000,,,,,,,0000.26,-000.14,0000.31,18.2,25.0,,00.0,0659.5,31.0
